Weather History for Creston, IA

Change the Weather History Date:

Monday, October 8, 2012

  Actual Average Record
Temperature  
Mean Temperature 50 °F -  
Max Temperature 66 °F 67 °F 86 °F (2010)
Min Temperature 35 °F 44 °F 23 °F (2000)
Degree Days  
Heating Degree Days 14    
Moisture  
Dew Point 29 °F    
Average Humidity 49    
Maximum Humidity 81    
Minimum Humidity 23    
Precipitation  
Precipitation 0.00 in - - ()
Sea Level Pressure  
Sea Level Pressure 29.96 in    
Wind  
Wind Speed 14 mph (SSW)    
Max Wind Speed 28 mph    
Max Gust Speed 32 mph    
Visibility 10 miles    
Events      
Averages and records for this station are not official NWS values.
T = Trace of Precipitation, MM = Missing Value Source: NWS Daily Summary

Daily Weather History Graph

Daily Weather History Graph

Search for Another Location

Airport:

Trip Planner

Search our weather history database for the weather conditions in past years. The results will help you decide how hot, cold, wet, or windy it might be!

Date:

Astronomy

Oct. 08, 2012 Rise Set
Actual Time 7:21 AM CDT 6:47 PM CDT
Civil Twilight 6:54 AM CDT 7:14 PM CDT
Nautical Twilight 6:22 AM CDT 7:46 PM CDT
Astronomical Twilight 5:50 AM CDT 8:18 PM CDT
Moon No Moon Rise 2:40 PM CDT (10/8)
Length of Visible Light 12h 20m
Length of Day
11h 25m
Last Quarter, 46% of the Moon is Illuminated
Oct 8
Last Quarter
Oct 15
New
Oct 21
First Quarter
Oct 29
Full
Nov 6
Last Quarter

Hourly Weather History & Observations

Time (CDT) Temp. Windchill Dew Point Humidity Pressure Visibility Wind Dir Wind Speed Gust Speed Precip Events Conditions
12:15 AM 39.2 °F 32.0 °F 26.6 °F 61% 30.07 in 10.0 mi SSW 11.5 mph - N/A   Clear
12:35 AM 39.2 °F 32.0 °F 26.6 °F 61% 30.06 in 10.0 mi SSW 11.5 mph - N/A   Clear
12:55 AM 39.2 °F 31.6 °F 26.6 °F 61% 30.06 in 10.0 mi SSW 12.7 mph - N/A   Clear
1:15 AM 39.2 °F 32.0 °F 26.6 °F 61% 30.06 in 10.0 mi SSW 11.5 mph - N/A   Clear
1:35 AM 39.2 °F 32.0 °F 26.6 °F 61% 30.06 in 10.0 mi SSW 11.5 mph - N/A   Clear
1:55 AM 39.2 °F 32.0 °F 28.4 °F 65% 30.06 in 10.0 mi SSW 11.5 mph - N/A   Clear
2:15 AM 39.2 °F 32.5 °F 28.4 °F 65% 30.06 in 10.0 mi SSW 10.4 mph - N/A   Clear
2:35 AM 37.4 °F 30.3 °F 28.4 °F 70% 30.06 in 10.0 mi SSW 10.4 mph - N/A   Clear
2:55 AM 37.4 °F 30.8 °F 28.4 °F 70% 30.05 in 10.0 mi SSW 9.2 mph - N/A   Clear
3:15 AM 37.4 °F 30.8 °F 28.4 °F 70% 30.04 in 10.0 mi SSW 9.2 mph - N/A   Clear
3:35 AM 37.4 °F 30.8 °F 28.4 °F 70% 30.03 in 10.0 mi SSW 9.2 mph - N/A   Clear
3:55 AM 37.4 °F 29.8 °F 28.4 °F 70% 30.03 in 10.0 mi SSW 11.5 mph - N/A   Clear
4:15 AM 37.4 °F 30.3 °F 28.4 °F 70% 30.02 in 10.0 mi SSW 10.4 mph - N/A   Clear
4:35 AM 37.4 °F 29.8 °F 28.4 °F 70% 30.02 in 10.0 mi SSW 11.5 mph - N/A   Clear
4:55 AM 37.4 °F 30.3 °F 30.2 °F 75% 30.02 in 10.0 mi SSW 10.4 mph - N/A   Clear
5:15 AM 37.4 °F 29.8 °F 30.2 °F 75% 30.02 in 10.0 mi SSW 11.5 mph - N/A   Clear
5:35 AM 37.4 °F 29.8 °F 30.2 °F 75% 30.01 in 10.0 mi South 11.5 mph - N/A   Clear
5:55 AM 35.6 °F 28.6 °F 28.4 °F 75% 30.02 in 10.0 mi South 9.2 mph - N/A   Clear
6:15 AM 35.6 °F 28.0 °F 28.4 °F 75% 30.01 in 10.0 mi SSW 10.4 mph - N/A   Clear
6:35 AM 37.4 °F 30.3 °F 30.2 °F 75% 30.01 in 10.0 mi SSW 10.4 mph - N/A   Clear
6:55 AM 35.6 °F 28.6 °F 30.2 °F 81% 30.01 in 10.0 mi South 9.2 mph - N/A   Clear
7:15 AM 35.6 °F 27.5 °F 30.2 °F 81% 30.01 in 10.0 mi South 11.5 mph - N/A   Clear
7:35 AM 35.6 °F 27.1 °F 30.2 °F 81% 30.01 in 10.0 mi South 12.7 mph - N/A   Clear
7:55 AM 37.4 °F 29.3 °F 30.2 °F 75% 30.01 in 10.0 mi South 12.7 mph - N/A   Clear
8:15 AM 39.2 °F 32.0 °F 30.2 °F 70% 30.01 in 10.0 mi SSW 11.5 mph - N/A   Clear
8:35 AM 41.0 °F 33.5 °F 30.2 °F 65% 30.01 in 10.0 mi SSW 13.8 mph 19.6 mph N/A   Clear
8:55 AM 42.8 °F 35.4 °F 30.2 °F 61% 30.01 in 10.0 mi SSW 15.0 mph - N/A   Clear
9:15 AM 44.6 °F 38.1 °F 30.2 °F 57% 30.00 in 10.0 mi SSW 13.8 mph 20.7 mph N/A   Clear
9:35 AM 44.6 °F 37.4 °F 30.2 °F 57% 30.00 in 10.0 mi SSW 16.1 mph - N/A   Clear
9:55 AM 46.4 °F 40.7 °F 32.0 °F 57% 30.00 in 10.0 mi SSW 12.7 mph - N/A   Clear
10:15 AM 48.2 °F - 32.0 °F 54% 30.00 in 10.0 mi SSW 12.7 mph 19.6 mph N/A   Clear
10:35 AM 51.8 °F - 32.0 °F 47% 29.99 in 10.0 mi South 16.1 mph - N/A   Clear
10:55 AM 53.6 °F - 32.0 °F 44% 29.99 in 10.0 mi South 17.3 mph - N/A   Clear
11:15 AM 55.4 °F - 32.0 °F 41% 29.98 in 10.0 mi SSW 16.1 mph - N/A   Clear
11:35 AM 57.2 °F - 30.2 °F 36% 29.98 in 10.0 mi SSW 21.9 mph 25.3 mph N/A   Clear
11:55 AM 59.0 °F - 30.2 °F 34% 29.97 in 10.0 mi SSW 20.7 mph 29.9 mph N/A   Clear
12:15 PM 59.0 °F - 30.2 °F 34% 29.97 in 10.0 mi SSW 20.7 mph 29.9 mph N/A   Clear
12:55 PM 62.6 °F - 30.2 °F 30% 29.95 in 10.0 mi SSW 19.6 mph 27.6 mph N/A   Clear
1:15 PM 62.6 °F - 28.4 °F 27% 29.94 in 10.0 mi SSW 23.0 mph 32.2 mph N/A   Clear
1:35 PM 62.6 °F - 28.4 °F 27% 29.93 in 10.0 mi SSW 20.7 mph 31.1 mph N/A   Clear
1:55 PM 62.6 °F - 28.4 °F 27% 29.92 in 10.0 mi SSW 21.9 mph 31.1 mph N/A   Clear
2:15 PM 64.4 °F - 26.6 °F 24% 29.91 in 10.0 mi SSW 27.6 mph 31.1 mph N/A   Clear
2:35 PM 64.4 °F - 28.4 °F 26% 29.90 in 10.0 mi SSW 21.9 mph 31.1 mph N/A   Clear
2:55 PM 64.4 °F - 26.6 °F 24% 29.89 in 10.0 mi SSW 24.2 mph 31.1 mph N/A   Clear
3:15 PM 64.4 °F - 26.6 °F 24% 29.89 in 10.0 mi SSW 20.7 mph 31.1 mph N/A   Clear
3:35 PM 64.4 °F - 26.6 °F 24% 29.88 in 10.0 mi SSW 21.9 mph 28.8 mph N/A   Clear
3:55 PM 66.2 °F - 26.6 °F 23% 29.87 in 10.0 mi SSW 25.3 mph 29.9 mph N/A   Clear
4:15 PM 66.2 °F - 26.6 °F 23% 29.86 in 10.0 mi SSW 19.6 mph 31.1 mph N/A   Clear
4:35 PM 66.2 °F - 26.6 °F 23% 29.86 in 10.0 mi South 25.3 mph 31.1 mph N/A   Clear
4:55 PM 64.4 °F - 26.6 °F 24% 29.86 in 10.0 mi SSW 19.6 mph 27.6 mph N/A   Clear
5:15 PM 64.4 °F - 26.6 °F 24% 29.86 in 10.0 mi SSW 21.9 mph 27.6 mph N/A   Clear
5:35 PM 64.4 °F - 26.6 °F 24% 29.85 in 10.0 mi SSW 24.2 mph 28.8 mph N/A   Clear
5:55 PM 62.6 °F - 28.4 °F 27% 29.85 in 10.0 mi South 19.6 mph 25.3 mph N/A   Clear
6:15 PM 62.6 °F - 28.4 °F 27% 29.86 in 10.0 mi South 18.4 mph 25.3 mph N/A   Clear
6:35 PM 60.8 °F - 28.4 °F 29% 29.86 in 10.0 mi South 15.0 mph - N/A   Clear
6:55 PM 57.2 °F - 30.2 °F 36% 29.87 in 10.0 mi South 12.7 mph - N/A   Clear
7:15 PM 57.2 °F - 30.2 °F 36% 29.87 in 10.0 mi South 13.8 mph - N/A   Clear
7:35 PM 55.4 °F - 30.2 °F 38% 29.88 in 10.0 mi South 10.4 mph - N/A   Clear
7:55 PM 55.4 °F - 30.2 °F 38% 29.88 in 10.0 mi South 13.8 mph - N/A   Clear
8:35 PM 53.6 °F - 30.2 °F 41% 29.87 in 10.0 mi South 17.3 mph - N/A   Clear
8:55 PM 53.6 °F - 30.2 °F 41% 29.88 in 10.0 mi South 15.0 mph - N/A   Clear
9:15 PM 53.6 °F - 30.2 °F 41% 29.88 in 10.0 mi South 16.1 mph 24.2 mph N/A   Clear
9:35 PM 53.6 °F - 30.2 °F 41% 29.87 in 10.0 mi South 17.3 mph - N/A   Clear
9:55 PM 53.6 °F - 32.0 °F 44% 29.87 in 10.0 mi South 17.3 mph 23.0 mph N/A   Clear
10:15 PM 51.8 °F - 32.0 °F 47% 29.87 in 10.0 mi South 18.4 mph 25.3 mph N/A   Clear
10:55 PM 51.8 °F - 32.0 °F 47% 29.87 in 10.0 mi South 17.3 mph 23.0 mph N/A   Clear
11:35 PM 51.8 °F - 32.0 °F 47% 29.87 in 10.0 mi South 15.0 mph - N/A   Clear
11:55 PM 50.0 °F - 33.8 °F 54% 29.87 in 10.0 mi South 13.8 mph - N/A   Clear